Voltar ao catálogo

ARIANE 5 R/B

AtivoHEO
NORAD 35944·ROCKET BODY·🇫🇷 France

Lançado Sep 30, 2009 de Guiana Space Centre

Loading…

Próximas Passagens (próximas 24 horas)

TLE

AtualizadoSource: Space-Track

Época: Sep 13, 2026, 00:44 UTC

1 35944U 09054C   26256.03078619  .00010336  00000-0  10813-2 0  9996
2 35944   3.4449 108.9127 6832020 248.8392  29.5732  2.88729659156327

Acompanhe ARIANE 5 R/B em tempo real com AllMySat

Download on the App Store